Погода в Иванькове

Россия / Тульская область     54°44′30″N   37°56′31″E
темп.,
°C
ветер,
м/с
пор.,
м/с
влажн.,
%
обл.,
%
осадки,
мм/ч
давл.,
гПа
погр.,
м
7 марта, вс
вс700:00−13зюз47880 0.0 101599
03:00−12юз512890 0.0 1012218
06:00−9юз8168797 0.0 1008492
09:00−6юз10189098 0.1 1003894
12:00−3юз111889100 0.6 9991156
15:00−2зюз111792100 1.3 9961237
18:00−4ссз71294100 2.9 994631
21:00−7з359389 3.1 99599
8 марта, пн
пн800:00−8з6128257 0.1 997258
03:00−8зюз6138655 0.1 998405
06:00−7зюз61391100 0.0 997505
09:00−6з91487100 0.4 9981256
12:00−6зсз71083100 0.1 10001023
15:00−5сз5880100 0.2 10031110
18:00−8сз3390100 0.1 100653
21:00−11сз239399 0.2 100921
9 марта, вт
вт900:00−11ссз359692 0.1 1010106
03:00−13ссз359696 0.3 1012134
06:00−15ссз379796 0.1 1013220
09:00−15ссз479494 0.1 1015347
12:00−12ссз4688100 0.0 1017595
15:00−11ссз5782100 0.1 1018812
18:00−14ссз358999 0.0 101983
21:00−18ссз349558 0.0 102255
10 марта, ср
ср1000:00−22с34970 0.0 102431
03:00−24ссз33970 0.0 102627
06:00−25ссз23980 0.0 102720
09:00−22ссз12940 0.0 102898
12:00−16з017915 0.0 1029305
15:00−14ю117442 0.0 1028353
18:00−17ююз118262 0.0 102820
21:00−21ю118531 0.0 102920
11 марта, чт
чт1100:00−21ю12860 0.0 102920
03:00−22юв22857 0.0 103020
06:00−22ююв238421 0.0 103020
09:00−19ююв348449 0.0 1030118
12:00−13ююв469117 0.0 1030278
15:00−11ююв469145 0.0 1029429
18:00−13ююв3695100 0.0 1028130
21:00−15ю499794 0.1 1028146